Bad Axe, MI

11:49 AM EST on December 16, 2017 (GMT -0500)
Huron County Memorial

Weather History for KBAX - January, 2013

Change the Weather History Date:

Wednesday, January 30, 2013

  Actual Average (KP58) Record (KP58)
Temperature  
Mean Temperature 42 °F -  
Max Temperature 51 °F 28 °F 52 °F (2013)
Min Temperature 32 °F 18 °F 1 °F (2004)
Degree Days  
Heating Degree Days 24    
Moisture  
Dew Point 40 °F    
Average Humidity 99    
Maximum Humidity 100    
Minimum Humidity 88    
Precipitation  
Precipitation 0.00 in - - ()
Sea Level Pressure  
Sea Level Pressure 29.22 in    
Wind  
Wind Speed 11 mph (SW)    
Max Wind Speed 21 mph    
Max Gust Speed 33 mph    
Visibility 6 miles    
Events Rain , Snow    
Averages and records for this station are not official NWS values.
T = Trace of Precipitation, MM = Missing Value Source: NWS Daily Summary

Daily Weather History Graph

Daily Weather History Graph

Search for Another Location

Airport or City:

Trip Planner

Search our weather history database for the weather conditions in past years. The results will help you decide how hot, cold, wet, or windy it might be!

Date:

Astronomy

Jan. 30, 2013 Rise Set
Actual Time 7:50 AM EST 5:40 PM EST
Civil Twilight 7:20 AM EST 6:11 PM EST
Nautical Twilight 6:45 AM EST 6:45 PM EST
Astronomical Twilight 6:11 AM EST 7:19 PM EST
Moon 9:48 PM EST (1/30) 9:09 AM EST (1/30)
Length of Visible Light 10h 51m
Length of Day
9h 49m
Waning Gibbous, 88% of the Moon is Illuminated
Jan 30
Waning Gibbous
Feb 3
Last Quarter
Feb 10
New
Feb 17
First Quarter
Feb 25
Full

Hourly Weather History & Observations

Time (EST) Temp. Windchill Dew Point Humidity Pressure Visibility Wind Dir Wind Speed Gust Speed Precip Events Conditions
12:13 AM 50.0 °F - 50.0 °F 100% 29.42 in 3.0 mi South 15.0 mph - N/A   Overcast
12:34 AM 50.9 °F - 50.9 °F 100% 29.41 in 3.0 mi South 17.3 mph - N/A   Light Drizzle
12:54 AM 50.9 °F - 50.9 °F 100% 29.41 in 3.0 mi South 18.4 mph 25.3 mph N/A Rain Rain
1:14 AM 51.1 °F - 51.1 °F 100% 29.37 in 3.0 mi South 15.0 mph - N/A Rain Rain
1:34 AM 50.5 °F - 50.5 °F 100% 29.36 in 3.0 mi South 17.3 mph - N/A Rain Light Rain
1:54 AM 50.4 °F - 50.4 °F 100% 29.34 in 3.0 mi South 17.3 mph - N/A   Overcast
2:14 AM 50.9 °F - 50.9 °F 100% 29.33 in 4.0 mi South 18.4 mph - N/A Rain Rain
2:33 AM 51.1 °F - 51.1 °F 100% 29.30 in 4.0 mi South 15.0 mph - N/A Rain Heavy Rain
2:54 AM 50.9 °F - 50.9 °F 100% 29.29 in 4.0 mi South 12.7 mph - N/A Rain Light Rain
3:14 AM 50.5 °F - 50.5 °F 100% 29.28 in 4.0 mi South 12.7 mph - N/A Rain Light Rain
3:34 AM 50.7 °F - 50.7 °F 100% 29.28 in 4.0 mi South 11.5 mph - N/A Rain Rain
3:54 AM 50.5 °F - 50.5 °F 100% 29.27 in 4.0 mi South 8.1 mph - N/A Rain Light Rain
4:14 AM 50.0 °F - 50.0 °F 100% 29.27 in 2.0 mi West 8.1 mph - N/A Rain Rain
4:34 AM 49.1 °F - 49.1 °F 100% 29.27 in 1.8 mi West 3.5 mph - N/A Rain Light Rain
4:54 AM 48.4 °F - 48.4 °F 100% 29.25 in 0.2 mi NW 3.5 mph - N/A Rain Light Rain
5:14 AM 46.2 °F 42.7 °F 46.2 °F 100% 29.25 in 1.2 mi North 6.9 mph - N/A Rain Light Rain
5:34 AM 44.1 °F 39.5 °F 44.1 °F 100% 29.26 in 5.0 mi North 8.1 mph - N/A Rain Rain
5:54 AM 41.7 °F 35.6 °F 41.7 °F 100% 29.29 in 7.0 mi North 10.4 mph - N/A Rain Rain
6:14 AM 38.5 °F 30.7 °F 38.5 °F 100% 29.32 in 5.0 mi North 12.7 mph 20.7 mph N/A Rain Light Rain
6:34 AM 37.6 °F 29.1 °F 37.6 °F 100% 29.32 in 7.0 mi NNW 13.8 mph - N/A   Overcast
6:54 AM 37.4 °F 30.3 °F 37.4 °F 100% 29.32 in 10.0 mi NNW 10.4 mph - N/A   Overcast
7:14 AM 37.0 °F 31.6 °F 37.0 °F 100% 29.30 in 10.0 mi North 6.9 mph - N/A Rain Light Rain
7:34 AM 36.9 °F - 36.9 °F 100% 29.29 in 10.0 mi Calm Calm - N/A Rain Rain
7:54 AM 36.5 °F - 36.5 °F 100% 29.25 in 10.0 mi Calm Calm - N/A   Mostly Cloudy
8:14 AM 36.0 °F - 36.0 °F 100% 29.27 in 10.0 mi Calm Calm - N/A   Mostly Cloudy
8:34 AM 36.5 °F 32.7 °F 36.5 °F 100% 29.28 in 10.0 mi NW 4.6 mph - N/A   Overcast
8:54 AM 36.1 °F 30.6 °F 36.1 °F 100% 29.27 in 10.0 mi NNW 6.9 mph - N/A   Overcast
9:14 AM 36.0 °F 32.1 °F 36.0 °F 100% 29.28 in 10.0 mi NNW 4.6 mph - N/A   Overcast
9:34 AM 36.1 °F 31.4 °F 36.1 °F 100% 29.29 in 10.0 mi NW 5.8 mph - N/A   Overcast
9:54 AM 35.6 °F 30.7 °F 35.6 °F 100% 29.28 in 10.0 mi NW 5.8 mph - N/A   Overcast
10:14 AM 36.0 °F 30.3 °F 36.0 °F 100% 29.32 in 10.0 mi WNW 6.9 mph - N/A   Overcast
10:34 AM 35.8 °F 30.9 °F 35.8 °F 100% 29.30 in 7.0 mi NW 5.8 mph - N/A   Overcast
10:54 AM 35.8 °F 33.0 °F 35.8 °F 100% 29.32 in 1.5 mi NW 3.5 mph - N/A   Overcast
11:14 AM 35.8 °F - 35.8 °F 100% 29.34 in 1.0 mi Calm Calm - N/A Snow Light Snow
11:34 AM 35.8 °F - 35.8 °F 100% 29.30 in 2.5 mi Calm Calm - N/A   Overcast
11:54 AM 36.5 °F 33.9 °F 36.5 °F 100% 29.28 in 7.0 mi NNE 3.5 mph - N/A   Overcast
12:14 PM 36.9 °F 33.1 °F 36.9 °F 100% 29.27 in 10.0 mi ENE 4.6 mph - N/A   Overcast
12:34 PM 37.2 °F 31.9 °F 37.2 °F 100% 29.25 in 7.0 mi NE 6.9 mph - N/A   Overcast
12:55 PM 37.0 °F 34.5 °F 37.0 °F 100% 29.25 in 10.0 mi East 3.5 mph - N/A   Overcast
1:14 PM 37.4 °F 33.8 °F 37.4 °F 100% 29.24 in 3.0 mi East 4.6 mph - N/A   Overcast
1:34 PM 37.0 °F 34.5 °F 37.0 °F 100% 29.22 in 4.0 mi East 3.5 mph - N/A   Overcast
1:54 PM 37.0 °F 34.5 °F 37.0 °F 100% 29.21 in 4.0 mi ESE 3.5 mph - N/A   Overcast
2:14 PM 37.0 °F 32.4 °F 37.0 °F 100% 29.20 in 1.8 mi ESE 5.8 mph - N/A   Overcast
2:34 PM 37.0 °F 33.3 °F 37.0 °F 100% 29.20 in 2.0 mi ESE 4.6 mph - N/A   Overcast
2:55 PM 37.4 °F 32.1 °F 37.4 °F 100% 29.19 in 3.0 mi SE 6.9 mph - N/A   Overcast
3:14 PM 37.0 °F 31.6 °F 37.0 °F 100% 29.17 in 1.8 mi SE 6.9 mph - N/A   Overcast
3:34 PM 37.0 °F 31.0 °F 37.0 °F 100% 29.17 in 2.5 mi SE 8.1 mph - N/A   Overcast
3:55 PM 36.9 °F 31.4 °F 36.9 °F 100% 29.17 in 2.5 mi SE 6.9 mph - N/A   Overcast
4:14 PM 37.4 °F 31.4 °F 37.4 °F 100% 29.11 in 1.0 mi SE 8.1 mph - N/A   Overcast
4:34 PM 37.4 °F 31.4 °F 37.4 °F 100% 29.13 in 1.5 mi SSE 8.1 mph - N/A   Overcast
4:55 PM 37.6 °F 32.3 °F 37.6 °F 100% 29.13 in 2.5 mi SSE 6.9 mph - N/A   Overcast
5:14 PM 38.3 °F 33.2 °F 38.3 °F 100% 29.10 in 2.5 mi SSE 6.9 mph - N/A Rain Light Rain
5:34 PM 39.4 °F 33.2 °F 39.4 °F 100% 29.10 in 2.5 mi SSE 9.2 mph - N/A Rain Light Rain
5:54 PM 40.8 °F 34.1 °F 40.8 °F 100% 29.09 in 7.0 mi South 11.5 mph - N/A   Overcast
6:14 PM 42.8 °F 35.8 °F 42.8 °F 100% 29.09 in 7.0 mi South 13.8 mph - N/A   Light Drizzle
6:35 PM 42.8 °F 36.2 °F 42.8 °F 100% 29.08 in 7.0 mi South 12.7 mph - N/A   Overcast
6:54 PM 43.9 °F 35.7 °F 43.9 °F 100% 29.09 in 7.0 mi WSW 19.6 mph 32.2 mph N/A Rain Light Rain
7:14 PM 44.1 °F 37.1 °F 44.1 °F 100% 29.08 in 10.0 mi West 15.0 mph 21.9 mph N/A Rain Rain
7:35 PM 43.2 °F 38.4 °F 43.2 °F 100% 29.07 in 7.0 mi WSW 8.1 mph - N/A Rain Light Rain
7:54 PM 43.2 °F 37.4 °F 43.2 °F 100% 29.07 in 10.0 mi SW 10.4 mph - N/A Rain Light Rain
8:14 PM 42.4 °F 35.3 °F 41.9 °F 98% 29.07 in 10.0 mi WSW 13.8 mph 19.6 mph N/A Rain Rain
8:35 PM 42.1 °F 36.1 °F 41.2 °F 97% 29.05 in 7.0 mi SW 10.4 mph 18.4 mph N/A Rain Light Rain
8:54 PM 42.1 °F 36.1 °F 41.0 °F 96% 29.04 in 10.0 mi SW 10.4 mph - N/A Rain Light Rain
9:14 PM 42.1 °F 33.6 °F 41.0 °F 96% 29.05 in 10.0 mi West 18.4 mph 23.0 mph N/A Rain Light Rain
9:35 PM 40.1 °F 30.5 °F 38.5 °F 94% 29.05 in 7.0 mi WSW 20.7 mph 33.4 mph N/A Rain Rain
9:54 PM 39.6 °F 30.6 °F 37.6 °F 93% 29.05 in 10.0 mi West 17.3 mph 29.9 mph N/A Rain Rain
10:14 PM 36.9 °F 27.1 °F 34.7 °F 92% 29.06 in 10.0 mi West 17.3 mph 24.2 mph N/A   Overcast
10:35 PM 36.1 °F 26.2 °F 34.2 °F 93% 29.08 in 10.0 mi West 17.3 mph 25.3 mph N/A   Overcast
10:54 PM 34.2 °F 23.0 °F 32.2 °F 92% 29.09 in 10.0 mi West 19.6 mph 27.6 mph N/A   Overcast
11:13 PM 33.3 °F 22.1 °F 31.6 °F 94% 29.09 in 10.0 mi West 18.4 mph 25.3 mph N/A   Overcast
11:34 PM 32.2 °F 20.4 °F 30.2 °F 92% 29.11 in 10.0 mi West 19.6 mph 32.2 mph N/A   Overcast
11:54 PM 32.0 °F 20.1 °F 28.8 °F 88% 29.11 in 10.0 mi West 19.6 mph 29.9 mph N/A   Overcast